1518098401.1,27123,8.75,72612.8,-3.01,-3.79,-3.79,0,*57
1518098402.31,27124,8.75,72610.8,-3.03,-3.79,-3.79,0,*52
1518098403.52,27125,8.75,72610.8,-3.03,-3.79,-3.79,0,*53
1518098404.73,27126,8.75,72610.8,-3.03,-3.79,-3.79,0,*50
1518098405.96,27127,8.75,72608.5,-3.01,-3.79,-3.79,0,*53
1518098407.17,27128,8.75,72604.8,-3.03,-3.79,-3.75,0,*52
1518098408.41,27129,8.75,72606.0,-3.01,-3.79,-3.79,0,*5D
1518098409.61,27130,8.75,72606.0,-3.03,-3.79,-3.79,0,*57
1518098410.85,27131,8.75,72606.0,-3.01,-3.79,-3.79,0,*54
1518098412.06,27132,8.75,72604.8,-3.03,-3.79,-3.79,0,*55
1518098413.27,27133,8.75,72606.3,-3.03,-3.79,-3.75,0,*58
1518098414.5,27134,8.75,72606.0,-3.01,-3.79,-3.79,0,*51
1518098415.74,27135,8.75,72606.0,-3.01,-3.79,-3.79,0,*50
1518098416.95,27136,8.75,72604.3,-3.03,-3.79,-3.79,0,*51
1518098418.18,27137,8.75,72606.5,-3.01,-3.79,-3.75,0,*5E
1518098419.39,27138,8.75,72600.8,-3.03,-3.79,-3.79,0,*5F
1518098420.62,27139,8.75,72606.8,-3.01,-3.79,-3.79,0,*5C
1518098421.83,27140,8.75,72602.0,-3.03,-3.75,-3.79,0,*5C
1518098423.04,27141,8.75,72604.8,-3.03,-3.83,-3.79,0,*54
1518098424.25,27142,8.75,72606.3,-3.03,-3.83,-3.79,0,*57
1518098425.46,27143,8.75,72604.0,-3.03,-3.79,-3.79,0,*53
1518098426.67,27144,8.75,72608.3,-3.03,-3.79,-3.75,0,*58
1518098427.88,27145,8.75,72608.5,-3.03,-3.79,-3.75,0,*59
1518098429.08,27146,8.75,72610.5,-3.03,-3.79,-3.79,0,*56
1518098430.29,27147,8.75,72612.5,-3.03,-3.79,-3.79,0,*57
1518098431.5,27148,8.75,72608.8,-3.03,-3.79,-3.79,0,*58
1518098432.71,27149,8.75,72610.3,-3.03,-3.79,-3.75,0,*55
1518098433.92,27150,8.75,72608.3,-3.03,-3.79,-3.79,0,*51
1518098435.13,27151,8.75,72614.0,-3.03,-3.79,-3.79,0,*50
1518098436.34,27152,8.75,72610.8,-3.03,-3.79,-3.79,0,*53
1518098437.55,27153,8.75,72608.5,-3.03,-3.79,-3.75,0,*5E
1518098438.76,27154,8.75,72610.0,-3.03,-3.79,-3.75,0,*59
1518098439.96,27155,8.81,72614.3,-3.03,-3.79,-3.79,0,*54
1518098441.17,27156,8.75,72608.0,-3.03,-3.79,-3.79,0,*57
1518098442.38,27157,8.75,72608.5,-3.03,-3.79,-3.75,0,*5A
1518098443.59,27158,8.75,72610.8,-3.03,-3.79,-3.79,0,*59
1518098444.8,27159,8.75,72612.5,-3.03,-3.79,-3.79,0,*58
1518098446.01,27160,8.75,72608.3,-3.03,-3.79,-3.75,0,*5E
1518098447.23,27161,8.75,72612.3,-3.05,-3.83,-3.83,0,*55
1518098448.46,27162,8.75,72614.5,-3.05,-3.83,-3.83,0,*56
1518098449.68,27163,8.75,72614.8,-3.05,-3.87,-3.83,0,*53
1518098450.9,27164,8.75,72614.8,-3.05,-3.87,-3.83,0,*54
1518098452.12,27165,8.75,72612.8,-3.05,-3.87,-3.83,0,*55
1518098453.34,27166,8.75,72610.8,-3.05,-3.83,-3.83,0,*52
1518098454.55,27167,8.81,72616.0,-3.03,-3.75,-3.79,0,*59
1518098455.76,27168,8.75,72608.5,-3.03,-3.79,-3.75,0,*56
1518098456.97,27169,8.75,72612.8,-3.03,-3.79,-3.79,0,*5B
1518098458.18,27170,8.75,72612.5,-3.03,-3.75,-3.79,0,*5F
1518098459.38,27171,8.75,72616.8,-3.07,-3.87,-3.87,0,*56
1518098460.6,27172,8.75,72618.5,-3.05,-3.83,-3.83,0,*57
1518098461.83,27173,8.75,72612.8,-3.05,-3.83,-3.83,0,*56
1518098463.05,27174,8.75,72612.0,-3.05,-3.83,-3.83,0,*51
1518098464.28,27175,8.75,72608.3,-3.05,-3.83,-3.83,0,*50
1518098465.51,27176,8.75,72608.5,-3.05,-3.83,-3.79,0,*56
1518098466.73,27177,8.75,72610.0,-3.05,-3.83,-3.83,0,*52
1518098467.94,27178,8.75,72608.0,-3.03,-3.79,-3.79,0,*5B
1518098469.17,27179,8.75,72608.0,-3.05,-3.83,-3.83,0,*5C
1518098470.36,27180,8.75,72608.5,-3.07,-3.87,-3.87,0,*58
1518098471.59,27181,8.81,72612.3,-3.05,-3.83,-3.83,0,*5B
1518098472.81,27182,8.75,72608.8,-3.05,-3.83,-3.83,0,*58
1518098474.04,27183,8.75,72608.8,-3.05,-3.83,-3.83,0,*59
1518098475.27,27184,8.75,72610.5,-3.05,-3.83,-3.79,0,*5B
1518098476.49,27185,8.81,72610.8,-3.05,-3.83,-3.83,0,*5F
1518098477.72,27186,8.75,72610.0,-3.05,-3.83,-3.83,0,*5C
1518098478.92,27187,8.81,72614.3,-3.07,-3.83,-3.83,0,*5F
1518098480.15,27188,8.81,72608.8,-3.05,-3.83,-3.83,0,*52
1518098481.35,27189,8.81,72610.8,-3.07,-3.87,-3.87,0,*51
1518098482.55,27190,8.75,72604.3,-3.07,-3.87,-3.87,0,*59
1518098483.75,27191,8.75,72600.8,-3.07,-3.87,-3.87,0,*58
1518098484.97,27192,8.75,72604.0,-3.05,-3.83,-3.83,0,*59
1518098486.17,27193,8.75,72610.0,-3.07,-3.87,-3.87,0,*5A
1518098487.39,27194,8.75,72608.5,-3.05,-3.83,-3.83,0,*5F
1518098488.59,27195,8.75,72608.3,-3.07,-3.87,-3.87,0,*5C
1518098489.8,27196,8.75,72604.8,-3.07,-3.83,-3.83,0,*5F
1518098490.99,27197,8.75,72606.5,-3.07,-3.87,-3.87,0,*5E
1518098492.19,27198,8.75,72604.8,-3.07,-3.87,-3.83,0,*55
1518098493.41,27199,8.75,72606.8,-3.05,-3.87,-3.87,0,*52
1518098494.61,27200,8.75,72606.5,-3.07,-3.87,-3.83,0,*57
1518098495.81,27201,8.75,72606.8,-3.07,-3.87,-3.87,0,*52
1518098497.01,27202,8.75,72608.3,-3.07,-3.87,-3.87,0,*51
1518098498.23,27203,8.81,72610.8,-3.05,-3.83,-3.83,0,*52
1518098499.43,27204,8.75,72608.3,-3.07,-3.87,-3.83,0,*53
1518098500.66,27205,8.75,72608.8,-3.05,-3.83,-3.79,0,*51
1518098501.89,27206,8.75,72608.0,-3.05,-3.83,-3.83,0,*57
1518098503.08,27207,8.75,72608.0,-3.07,-3.87,-3.87,0,*54
1518098504.28,27208,8.75,72606.5,-3.07,-3.87,-3.87,0,*5B
1518098505.48,27209,8.81,72608.8,-3.07,-3.87,-3.83,0,*5E
1518098506.68,27210,8.75,72604.8,-3.07,-3.87,-3.87,0,*52
1518098507.88,27211,8.75,72606.0,-3.07,-3.87,-3.87,0,*53
1518098509.08,27212,8.81,72610.5,-3.07,-3.87,-3.83,0,*54
1518098510.28,27213,8.75,72606.0,-3.07,-3.87,-3.87,0,*51
1518098511.47,27214,8.75,72600.8,-3.07,-3.87,-3.87,0,*56
1518098512.67,27215,8.81,72604.5,-3.07,-3.87,-3.87,0,*57
1518098513.87,27216,8.75,72608.8,-3.07,-3.87,-3.87,0,*54
1518098515.07,27217,8.75,72612.5,-3.07,-3.87,-3.83,0,*51
1518098516.27,27218,8.75,72610.8,-3.07,-3.87,-3.87,0,*5A
1518098517.47,27219,8.75,72608.8,-3.07,-3.87,-3.87,0,*5B
1518098518.66,27220,8.75,72608.8,-3.07,-3.87,-3.87,0,*51
1518098519.89,27221,8.75,72608.5,-3.05,-3.83,-3.83,0,*52
1518098521.09,27222,8.81,72610.0,-3.07,-3.87,-3.87,0,*53
1518098522.29,27223,8.75,72608.0,-3.07,-3.87,-3.87,0,*52
1518098523.49,27224,8.75,72604.8,-3.07,-3.87,-3.87,0,*55
1518098524.68,27225,8.81,72610.0,-3.07,-3.87,-3.83,0,*50
1518098525.88,27226,8.75,72608.5,-3.07,-3.87,-3.87,0,*57
1518098527.08,27227,8.75,72604.0,-3.07,-3.87,-3.87,0,*56
1518098528.31,27228,8.75,72608.8,-3.09,-3.83,-3.83,0,*57
1518098529.54,27229,8.75,72608.0,-3.09,-3.87,-3.83,0,*52
1518098530.76,27230,8.75,72610.0,-3.09,-3.87,-3.83,0,*5A
1518098531.96,27231,8.75,72610.5,-3.07,-3.87,-3.87,0,*51
1518098533.18,27232,8.75,72610.5,-3.09,-3.87,-3.87,0,*5C
1518098534.41,27233,8.75,72612.0,-3.09,-3.87,-3.87,0,*5D
1518098535.61,27234,8.75,72610.3,-3.11,-3.91,-3.87,0,*54
1518098536.84,27235,8.75,72610.5,-3.09,-3.87,-3.87,0,*5B
1518098538.06,27236,8.75,72608.5,-3.09,-3.87,-3.87,0,*58
1518098539.28,27237,8.75,72610.8,-3.09,-3.87,-3.87,0,*59
1518098540.51,27238,8.75,72608.0,-3.09,-3.87,-3.87,0,*56
1518098541.73,27239,8.75,72610.3,-3.09,-3.87,-3.87,0,*57
1518098542.93,27240,8.75,72610.0,-3.11,-3.87,-3.87,0,*50
1518098544.15,27241,8.75,72608.3,-3.09,-3.87,-3.87,0,*58
1518098545.38,27242,8.75,72606.3,-3.09,-3.87,-3.83,0,*5F
1518098546.6,27243,8.75,72604.8,-3.09,-3.87,-3.83,0,*5E
1518098547.81,27244,8.75,72608.0,-3.11,-3.91,-3.91,0,*54
1518098549.04,27245,8.75,72606.5,-3.09,-3.87,-3.87,0,*5C
1518098550.24,27246,8.81,72610.0,-3.11,-3.87,-3.91,0,*51
1518098551.45,27247,8.75,72610.5,-3.11,-3.91,-3.91,0,*57
1518098552.67,27248,8.75,72610.8,-3.09,-3.87,-3.83,0,*55
1518098553.89,27249,8.81,72614.0,-3.09,-3.87,-3.87,0,*50
1518098555.12,27250,8.75,72610.8,-3.09,-3.83,-3.87,0,*5C
1518098556.36,27251,8.75,72610.0,-3.09,-3.83,-3.83,0,*59
1518098557.58,27252,8.75,72610.3,-3.09,-3.87,-3.87,0,*5A
1518098558.8,27253,8.75,72610.0,-3.09,-3.87,-3.87,0,*5B
1518098560.01,27254,8.75,72604.8,-3.11,-3.91,-3.91,0,*55
1518098561.24,27255,8.75,72606.5,-3.09,-3.87,-3.83,0,*59
1518098562.46,27256,8.75,72608.3,-3.09,-3.87,-3.83,0,*5A
1518098563.69,27257,8.81,72610.5,-3.09,-3.87,-3.83,0,*5B
1518098564.91,27258,8.75,72604.0,-3.09,-3.87,-3.83,0,*54
1518098566.12,27259,8.75,72606.3,-3.11,-3.91,-3.87,0,*5F
1518098567.34,27260,8.75,72604.3,-3.09,-3.87,-3.83,0,*5F
1518098568.56,27261,8.75,72604.5,-3.09,-3.87,-3.83,0,*5E
1518098569.79,27262,8.75,72604.3,-3.09,-3.87,-3.87,0,*59
1518098571.02,27263,8.75,72606.5,-3.09,-3.83,-3.87,0,*5C
1518098572.22,27264,8.75,72604.8,-3.11,-3.87,-3.87,0,*56
1518098573.42,27265,8.81,72610.8,-3.11,-3.91,-3.91,0,*57
1518098574.63,27266,8.75,72608.0,-3.11,-3.91,-3.91,0,*54
1518098575.84,27267,8.81,72614.3,-3.11,-3.91,-3.91,0,*55
1518098577.05,27268,8.75,72612.8,-3.11,-3.91,-3.87,0,*5D
1518098578.25,27269,8.81,72614.0,-3.11,-3.91,-3.91,0,*5B
1518098579.46,27270,8.75,72610.5,-3.11,-3.91,-3.91,0,*53
1518098580.69,27271,8.75,72610.5,-3.09,-3.87,-3.83,0,*5F
1518098581.9,27272,8.75,72608.0,-3.11,-3.91,-3.91,0,*51
1518098583.1,27273,8.75,72610.5,-3.11,-3.91,-3.91,0,*50
1518098584.31,27274,8.75,72604.0,-3.11,-3.91,-3.91,0,*57
1518098585.52,27275,8.75,72606.3,-3.11,-3.95,-3.91,0,*52
1518098586.74,27276,8.75,72604.3,-3.09,-3.87,-3.87,0,*5C
1518098587.95,27277,8.81,72604.5,-3.11,-3.91,-3.87,0,*53
1518098589.16,27278,8.81,72606.8,-3.11,-3.91,-3.91,0,*5B
1518098590.36,27279,8.75,72602.8,-3.11,-3.87,-3.91,0,*5D
1518098591.57,27280,8.75,72604.5,-3.11,-3.91,-3.91,0,*5C
1518098592.78,27281,8.75,72606.3,-3.11,-3.91,-3.91,0,*5D
1518098593.98,27282,8.75,72606.3,-3.11,-3.91,-3.87,0,*59
1518098595.2,27283,8.81,72608.0,-3.09,-3.87,-3.83,0,*52
1518098596.41,27284,8.75,72604.0,-3.11,-3.91,-3.91,0,*58
1518098597.62,27285,8.75,72604.5,-3.11,-3.91,-3.87,0,*5E
1518098598.82,27286,8.75,72606.8,-3.11,-3.87,-3.91,0,*5D
1518098600.02,27287,8.75,72610.0,-3.11,-3.91,-3.87,0,*5C
1518098601.23,27288,8.75,72610.0,-3.11,-3.91,-3.91,0,*54
1518098602.44,27289,8.75,72610.8,-3.11,-3.91,-3.91,0,*55
1518098603.65,27290,8.81,72612.0,-3.11,-3.91,-3.91,0,*5D
1518098604.85,27291,8.75,72610.5,-3.11,-3.87,-3.91,0,*5B
1518098606.06,27292,8.81,72610.5,-3.11,-3.91,-3.91,0,*5F
1518098607.26,27293,8.75,72608.0,-3.11,-3.91,-3.87,0,*59
1518098608.47,27294,8.75,72604.5,-3.11,-3.91,-3.91,0,*59
1518098609.67,27295,8.75,72610.3,-3.11,-3.95,-3.91,0,*5C
1518098610.88,27296,8.75,72606.3,-3.11,-3.95,-3.91,0,*5F
1518098612.09,27297,8.75,72604.8,-3.11,-3.91,-3.91,0,*5A
1518098613.31,27298,8.75,72602.3,-3.09,-3.87,-3.87,0,*5C
1518098614.52,27299,8.75,72600.0,-3.11,-3.91,-3.87,0,*53
1518098615.72,27300,8.81,72606.8,-3.11,-3.87,-3.91,0,*52
1518098616.93,27301,8.75,72608.5,-3.11,-3.91,-3.91,0,*54
1518098618.14,27302,8.75,72608.5,-3.11,-3.91,-3.91,0,*57
1518098619.34,27303,8.75,72610.5,-3.11,-3.91,-3.91,0,*56
1518098620.55,27304,8.75,72604.8,-3.11,-3.91,-3.91,0,*51
1518098621.76,27305,8.75,72600.8,-3.11,-3.91,-3.87,0,*57
1518098622.98,27306,8.75,72600.3,-3.13,-3.91,-3.87,0,*56
1518098624.21,27307,8.75,72602.8,-3.13,-3.91,-3.87,0,*57
1518098625.44,27308,8.75,72604.3,-3.13,-3.91,-3.91,0,*5F
1518098626.67,27309,8.81,72608.5,-3.13,-3.87,-3.91,0,*59
1518098627.9,27310,8.81,72608.5,-3.13,-3.91,-3.91,0,*56
1518098629.13,27311,8.75,72606.0,-3.13,-3.91,-3.87,0,*50
1518098630.36,27312,8.75,72606.0,-3.13,-3.91,-3.87,0,*53
1518098631.58,27313,8.75,72606.8,-3.13,-3.91,-3.87,0,*52
1518098632.81,27314,8.75,72606.8,-3.13,-3.91,-3.87,0,*55
1518098634.04,27315,8.75,72606.5,-3.17,-3.95,-3.91,0,*53
1518098635.27,27316,8.75,72608.0,-3.17,-3.95,-3.95,0,*54
1518098636.5,27317,8.81,72610.5,-3.13,-3.91,-3.87,0,*56
1518098637.73,27318,8.81,72608.3,-3.13,-3.91,-3.91,0,*5E
1518098638.96,27319,8.75,72602.3,-3.13,-3.91,-3.91,0,*5F
1518098640.19,27320,8.75,72606.0,-3.13,-3.91,-3.91,0,*55
1518098641.41,27321,8.75,72610.0,-3.13,-3.87,-3.87,0,*54
1518098642.64,27322,8.81,72610.5,-3.13,-3.91,-3.87,0,*50
1518098643.87,27323,8.75,72606.5,-3.13,-3.91,-3.91,0,*56
1518098645.1,27324,8.75,72606.3,-3.13,-3.91,-3.87,0,*56
1518098646.33,27325,8.75,72608.5,-3.13,-3.91,-3.87,0,*57
1518098647.55,27326,8.81,72608.8,-3.13,-3.87,-3.95,0,*50
1518098648.78,27327,8.75,72602.5,-3.13,-3.91,-3.87,0,*55
1518098650.01,27328,8.75,72608.0,-3.13,-3.91,-3.91,0,*5D
1518098651.23,27329,8.75,72610.3,-3.13,-3.87,-3.87,0,*5C
1518098652.46,27330,8.75,72608.8,-3.13,-3.91,-3.87,0,*53
1518098653.69,27331,8.81,72614.0,-3.17,-3.95,-3.95,0,*51
1518098654.92,27332,8.75,72612.3,-3.13,-3.91,-3.91,0,*56
1518098656.15,27333,8.75,72614.0,-3.13,-3.91,-3.91,0,*57
1518098657.38,27334,8.75,72612.0,-3.13,-3.91,-3.91,0,*50
1518098658.61,27335,8.75,72608.0,-3.17,-3.95,-3.95,0,*55
1518098659.84,27336,8.75,72610.0,-3.13,-3.95,-3.91,0,*56
1518098661.07,27337,8.75,72606.3,-3.17,-3.95,-3.91,0,*53
1518098662.29,27338,8.75,72606.8,-3.13,-3.91,-3.87,0,*5B
1518098663.52,27339,8.75,72606.8,-3.17,-3.95,-3.95,0,*59
1518098664.75,27340,8.75,72608.0,-3.17,-3.91,-3.95,0,*53
1518098665.98,27341,8.75,72610.8,-3.13,-3.91,-3.87,0,*55
1518098667.21,27342,8.75,72610.8,-3.17,-3.95,-3.91,0,*51
1518098668.44,27343,8.75,72608.0,-3.13,-3.91,-3.87,0,*57
1518098669.66,27344,8.75,72610.0,-3.17,-3.95,-3.95,0,*53
1518098670.89,27345,8.75,72606.5,-3.17,-3.95,-3.95,0,*52
1518098672.12,27346,8.75,72608.0,-3.17,-3.95,-3.91,0,*55
1518098673.35,27347,8.75,72604.8,-3.17,-3.95,-3.95,0,*50
1518098674.58,27348,8.81,72608.5,-3.17,-3.95,-3.91,0,*5B
1518098675.81,27349,8.75,72608.0,-3.17,-3.95,-3.91,0,*5A
1518098677.03,27350,8.75,72610.8,-3.17,-3.95,-3.95,0,*56
1518098678.26,27351,8.75,72608.0,-3.17,-3.95,-3.95,0,*57
1518098679.49,27352,8.75,72612.0,-3.17,-3.95,-3.91,0,*50
1518098680.72,27353,8.75,72612.0,-3.17,-3.91,-3.91,0,*55
1518098681.95,27354,8.75,72614.8,-3.17,-3.95,-3.95,0,*52
1518098683.18,27355,8.75,72612.5,-3.17,-3.95,-3.91,0,*57
1518098684.41,27356,8.75,72612.5,-3.13,-3.91,-3.87,0,*53
1518098685.64,27357,8.75,72612.3,-3.17,-3.91,-3.95,0,*55
1518098686.86,27358,8.75,72612.5,-3.17,-3.95,-3.95,0,*5E
1518098688.09,27359,8.81,72612.5,-3.17,-3.95,-3.91,0,*5B
1518098689.32,27360,8.75,72612.3,-3.13,-3.91,-3.91,0,*51
1518098690.55,27361,8.81,72612.0,-3.17,-3.95,-3.95,0,*54
1518098691.78,27362,8.75,72612.8,-3.17,-3.95,-3.95,0,*57
1518098693.0,27363,8.81,72618.5,-3.17,-3.95,-3.95,0,*56
1518098694.24,27364,8.75,72614.5,-3.17,-3.91,-3.91,0,*51
1518098695.47,27365,8.75,72614.8,-3.17,-3.95,-3.91,0,*54
1518098696.67,27366,8.75,72612.0,-3.19,-3.95,-3.95,0,*5D
1518098697.87,27367,8.81,72618.0,-3.19,-3.95,-3.95,0,*5C
1518098699.07,27368,8.75,72614.3,-3.19,-3.95,-3.95,0,*53
1518098700.28,27369,8.75,72612.0,-3.19,-3.95,-3.91,0,*56
1518098701.48,27370,8.75,72612.5,-3.19,-3.95,-3.95,0,*5A
1518098702.69,27371,8.75,72608.0,-3.19,-3.95,-3.95,0,*5B
1518098703.89,27372,8.75,72610.3,-3.19,-3.95,-3.91,0,*5C
1518098705.09,27373,8.75,72610.3,-3.19,-3.95,-3.95,0,*59
1518098706.3,27374,8.75,72610.3,-3.19,-3.95,-3.95,0,*5E
1518098707.5,27375,8.75,72608.5,-3.19,-3.95,-3.95,0,*5F
1518098708.7,27376,8.75,72602.0,-3.19,-3.95,-3.95,0,*5C
1518098709.91,27377,8.75,72604.5,-3.19,-3.91,-3.95,0,*59
1518098711.11,27378,8.81,72610.3,-3.19,-3.95,-3.95,0,*52
1518098712.31,27379,8.75,72608.5,-3.19,-3.95,-3.91,0,*57
1518098713.52,27380,8.75,72610.5,-3.19,-3.95,-3.91,0,*51
1518098714.72,27381,8.75,72606.0,-3.19,-3.95,-3.91,0,*50
1518098715.93,27382,8.75,72610.3,-3.19,-3.95,-3.91,0,*53
1518098717.13,27383,8.75,72604.8,-3.19,-3.95,-3.95,0,*56
1518098718.34,27384,8.75,72606.8,-3.19,-3.95,-3.91,0,*55
1518098719.57,27385,8.81,72608.3,-3.19,-4.01,-3.95,0,*5A
1518098720.77,27386,8.81,72606.8,-3.19,-3.95,-3.95,0,*53
1518098721.98,27387,8.75,72606.8,-3.19,-3.95,-3.91,0,*56
1518098723.26,27388,8.75,72608.8,-3.21,-4.01,-4.01,0,*56
1518098724.46,27389,8.75,72610.8,-3.19,-3.95,-3.95,0,*5C
1518098725.66,27390,8.75,72608.8,-3.19,-3.95,-3.91,0,*50
1518098726.92,27391,8.81,72610.5,-3.21,-4.01,-3.95,0,*54
1518098728.17,27392,8.81,72614.0,-3.21,-4.01,-3.95,0,*57
1518098729.38,27393,8.75,72610.8,-3.19,-3.95,-3.91,0,*53
1518098730.58,27394,8.75,72608.5,-3.19,-3.91,-3.95,0,*54
1518098731.79,27395,8.75,72612.8,-3.19,-3.95,-3.95,0,*51
1518098732.99,27396,8.75,72612.5,-3.19,-3.95,-3.91,0,*56
1518098734.27,27397,8.75,72614.3,-3.21,-4.01,-4.01,0,*58
1518098735.48,27398,8.81,72616.3,-3.19,-3.95,-3.91,0,*58
1518098736.73,27399,8.75,72612.5,-3.21,-4.01,-3.95,0,*5C
1518098737.94,27400,8.75,72612.8,-3.19,-3.95,-3.91,0,*5E
1518098739.14,27401,8.75,72614.5,-3.19,-3.95,-3.91,0,*5F
1518098740.35,27402,8.81,72616.0,-3.19,-3.91,-3.91,0,*58
1518098741.56,27403,8.75,72614.0,-3.19,-3.95,-3.91,0,*5D
1518098742.81,27404,8.75,72614.3,-3.21,-4.01,-3.95,0,*5F
1518098744.02,27405,8.75,72612.3,-3.19,-3.95,-3.91,0,*5B
1518098745.23,27406,8.75,72614.3,-3.19,-3.95,-3.91,0,*58
1518098746.48,27407,8.75,72614.8,-3.21,-4.01,-3.95,0,*5C
1518098747.73,27408,8.75,72616.3,-3.21,-4.01,-3.95,0,*53
1518098748.96,27409,8.75,72614.8,-3.19,-4.01,-3.91,0,*5D
1518098750.22,27410,8.81,72618.0,-3.21,-3.95,-4.01,0,*5A
1518098751.47,27411,8.81,72618.8,-3.21,-4.01,-3.95,0,*5B
1518098752.68,27412,8.75,72614.3,-3.19,-3.91,-3.91,0,*59
1518098753.94,27413,8.75,72612.3,-3.21,-4.01,-3.95,0,*59
1518098755.14,27414,8.81,72616.3,-3.19,-3.95,-3.95,0,*5F
1518098756.42,27415,8.75,72612.0,-3.21,-4.01,-4.01,0,*55
1518098757.67,27416,8.75,72612.8,-3.21,-4.01,-3.95,0,*5C
1518098758.93,27417,8.75,72610.8,-3.21,-4.01,-3.95,0,*5D
1518098760.13,27418,8.75,72616.3,-3.19,-3.95,-3.91,0,*57
1518098761.42,27419,8.81,72614.3,-3.21,-4.01,-4.01,0,*59
1518098762.67,27420,8.75,72612.0,-3.21,-4.01,-3.95,0,*59
1518098763.88,27421,8.81,72616.3,-3.19,-3.95,-3.91,0,*5D
1518098765.13,27422,8.75,72612.8,-3.21,-3.95,-4.01,0,*5B
1518098766.34,27423,8.75,72614.0,-3.19,-3.91,-3.95,0,*5F
1518098767.54,27424,8.81,72616.3,-3.19,-3.91,-3.91,0,*5C
1518098768.8,27425,8.75,72612.5,-3.21,-3.95,-4.01,0,*5C
1518098770.08,27426,8.81,72614.5,-3.21,-4.01,-4.01,0,*55
1518098771.34,27427,8.81,72612.5,-3.21,-4.01,-3.95,0,*5E
1518098772.59,27428,8.75,72614.8,-3.21,-4.01,-3.95,0,*51
1518098773.87,27429,8.81,72618.5,-3.21,-4.01,-4.01,0,*5A
1518098775.1,27430,8.75,72614.3,-3.19,-3.95,-4.01,0,*53
1518098776.38,27431,8.81,72614.0,-3.21,-4.01,-4.01,0,*53
1518098777.63,27432,8.81,72616.5,-3.21,-4.01,-3.95,0,*5A
1518098778.89,27433,8.81,72616.8,-3.21,-3.95,-4.01,0,*5B
1518098780.11,27434,8.75,72612.3,-3.23,-4.01,-3.95,0,*5E
1518098781.32,27435,8.81,72612.5,-3.19,-3.95,-3.91,0,*58
1518098782.57,27436,8.75,72612.8,-3.21,-4.01,-3.95,0,*5E
1518098783.8,27437,8.75,72610.5,-3.23,-4.01,-3.95,0,*5D
1518098785.05,27438,8.75,72612.5,-3.23,-4.01,-4.01,0,*58
1518098786.3,27439,8.75,72614.0,-3.21,-4.01,-3.95,0,*51
1518098787.53,27440,8.81,72614.8,-3.21,-3.95,-3.95,0,*55
1518098788.79,27441,8.81,72618.5,-3.21,-4.01,-3.95,0,*5E
1518098790.07,27442,8.75,72612.3,-3.21,-4.01,-4.01,0,*57
1518098791.32,27443,8.75,72612.8,-3.21,-4.01,-3.95,0,*5C
1518098792.58,27444,8.75,72610.3,-3.21,-4.01,-3.95,0,*5B
1518098793.83,27445,8.81,72616.3,-3.21,-4.01,-3.95,0,*5A
1518098795.11,27446,8.75,72618.0,-3.21,-4.01,-4.01,0,*53
1518098796.37,27447,8.75,72612.5,-3.21,-4.01,-3.95,0,*58
1518098797.65,27448,8.81,72618.8,-3.21,-4.01,-4.01,0,*5D
1518098798.9,27449,8.75,72612.8,-3.23,-4.01,-4.01,0,*5E
1518098800.12,27450,8.81,72614.3,-3.23,-4.01,-3.87,0,*5F
1518098801.37,27451,8.75,72612.8,-3.25,-4.05,-4.01,0,*55
1518098802.57,27452,8.75,72614.0,-3.23,-3.95,-3.95,0,*54
1518098803.79,27453,8.81,72616.8,-3.23,-4.01,-3.95,0,*5F
1518098805.07,27454,8.75,72614.3,-3.21,-4.01,-4.01,0,*50
1518098806.33,27455,8.75,72618.0,-3.23,-4.01,-4.01,0,*53
1518098807.55,27456,8.75,72616.0,-3.23,-4.01,-3.95,0,*5A
1518098808.8,27457,8.81,72618.3,-3.23,-4.01,-4.01,0,*51
1518098810.03,27458,8.81,72616.3,-3.23,-4.01,-3.95,0,*54
1518098811.25,27459,8.81,72618.8,-3.23,-4.01,-3.95,0,*55
1518098812.51,27460,8.75,72618.3,-3.21,-4.01,-3.95,0,*5D
1518098813.73,27461,8.81,72618.0,-3.23,-4.01,-3.95,0,*5E
1518098814.96,27462,8.81,72616.0,-3.23,-4.01,-3.95,0,*5D
1518098816.21,27463,8.75,72618.5,-3.23,-4.01,-4.01,0,*56
1518098817.43,27464,8.81,72618.8,-3.23,-4.01,-3.95,0,*5B
1518098818.66,27465,8.81,72618.0,-3.23,-4.01,-3.95,0,*5A
1518098819.91,27466,8.75,72618.3,-3.23,-4.01,-4.01,0,*53
1518098821.13,27467,8.75,72616.5,-3.23,-4.01,-3.95,0,*58
1518098822.36,27468,8.75,72618.0,-3.23,-4.01,-3.95,0,*57
1518098823.6,27469,8.75,72618.3,-3.25,-4.05,-4.01,0,*5E
1518098824.83,27470,8.81,72620.5,-3.23,-3.95,-4.01,0,*5E
1518098826.05,27471,8.81,72618.8,-3.25,-4.05,-4.05,0,*53
1518098827.3,27472,8.75,72614.0,-3.25,-4.05,-4.01,0,*54
1518098828.52,27473,8.75,72614.8,-3.23,-4.01,-3.95,0,*5D
1518098829.78,27474,8.75,72614.3,-3.23,-4.01,-4.01,0,*50
1518098831.0,27475,8.75,72612.5,-3.25,-4.05,-4.05,0,*57
1518098832.24,27476,8.81,72616.0,-3.25,-4.05,-4.01,0,*50
1518098833.47,27477,8.75,72612.5,-3.23,-3.95,-4.01,0,*59
1518098834.67,27478,8.81,72618.3,-3.23,-3.95,-3.95,0,*5C
1518098835.87,27479,8.81,72618.8,-3.23,-3.95,-3.95,0,*5D
1518098837.09,27480,8.75,72612.8,-3.25,-4.05,-4.05,0,*5D
1518098838.34,27481,8.75,72614.0,-3.23,-4.01,-4.01,0,*5A
1518098839.57,27482,8.81,72614.0,-3.23,-4.01,-3.95,0,*53
1518098840.81,27483,8.75,72614.5,-3.25,-4.05,-4.01,0,*5A
1518098842.06,27484,8.75,72612.3,-3.25,-4.05,-4.01,0,*5D
1518098843.28,27485,8.75,72614.8,-3.25,-4.05,-4.05,0,*58
1518098844.51,27486,8.81,72616.3,-3.25,-4.05,-4.05,0,*5B
1518098845.76,27487,8.81,72616.8,-3.23,-4.01,-4.01,0,*5C
1518098846.98,27488,8.81,72616.5,-3.23,-4.01,-3.95,0,*59
1518098848.2,27489,8.75,72616.8,-3.25,-4.05,-4.05,0,*54
1518098849.43,27490,8.75,72614.0,-3.23,-4.01,-3.95,0,*50
1518098850.65,27491,8.75,72614.5,-3.23,-4.01,-3.95,0,*51
1518098851.87,27492,8.81,72616.0,-3.23,-4.05,-4.01,0,*5C
1518098853.12,27493,8.75,72608.0,-3.25,-4.05,-4.01,0,*5B
1518098854.34,27494,8.81,72612.0,-3.25,-4.05,-4.05,0,*58
1518098855.56,27495,8.81,72614.3,-3.23,-4.05,-4.01,0,*5B
1518098856.82,27496,8.75,72610.3,-3.25,-4.01,-4.05,0,*5E
1518098858.07,27497,8.81,72610.5,-3.23,-4.01,-4.01,0,*5D
1518098859.32,27498,8.75,72608.3,-3.25,-4.01,-4.05,0,*50
1518098860.57,27499,8.81,72608.0,-3.23,-4.01,-4.01,0,*53
1518098861.82,27500,8.81,72604.3,-3.25,-4.05,-4.01,0,*50
1518098863.07,27501,8.81,72610.8,-3.25,-4.05,-4.01,0,*51
1518098864.29,27502,8.81,72610.5,-3.23,-4.01,-3.95,0,*5A
1518098865.57,27503,8.81,72612.8,-3.25,-4.01,-4.01,0,*57
1518098866.82,27504,8.75,72610.5,-3.25,-4.05,-4.01,0,*54
1518098868.02,27505,8.81,72614.5,-3.23,-3.95,-3.95,0,*57
1518098869.24,27506,8.75,72614.8,-3.25,-4.05,-4.05,0,*52
1518098870.46,27507,8.75,72614.0,-3.25,-4.05,-4.05,0,*53
1518098871.69,27508,8.81,72612.5,-3.23,-4.01,-3.95,0,*50
1518098872.91,27509,8.75,72608.5,-3.25,-4.05,-4.05,0,*5D
1518098874.13,27510,8.75,72610.8,-3.25,-4.05,-4.05,0,*55
1518098875.35,27511,8.81,72614.3,-3.25,-4.05,-4.05,0,*54
1518098876.57,27512,8.81,72614.0,-3.25,-4.05,-4.05,0,*57
1518098877.82,27513,8.81,72614.5,-3.25,-4.05,-4.01,0,*52
1518098879.07,27514,8.81,72614.3,-3.25,-4.05,-4.01,0,*55
1518098880.32,27515,8.75,72612.8,-3.25,-4.05,-4.01,0,*54
1518098881.56,27516,8.75,72614.3,-3.25,-4.05,-4.01,0,*57
1518098882.84,27517,8.81,72616.5,-3.25,-4.01,-4.01,0,*52
1518098884.06,27518,8.81,72616.8,-3.25,-4.05,-4.05,0,*5D
1518098885.32,27519,8.75,72612.5,-3.25,-4.01,-4.05,0,*58
1518098886.54,27520,8.75,72610.8,-3.25,-4.05,-4.05,0,*56
1518098887.76,27521,8.81,72612.8,-3.25,-4.05,-4.05,0,*57
1518098888.96,27522,8.81,72612.3,-3.27,-4.09,-4.05,0,*5A
1518098890.2,27523,8.75,72608.5,-3.25,-4.05,-4.01,0,*51
1518098891.42,27524,8.81,72614.0,-3.25,-4.05,-4.05,0,*52
1518098892.65,27525,8.75,72610.0,-3.25,-4.05,-4.05,0,*53
1518098893.84,27526,8.81,72608.8,-3.27,-4.09,-4.09,0,*52
1518098895.06,27527,8.81,72608.0,-3.29,-4.09,-4.05,0,*51
1518098896.26,27528,8.81,72608.5,-3.27,-4.09,-4.05,0,*50
1518098897.45,27529,8.75,72606.0,-3.27,-4.09,-4.05,0,*51
1518098898.65,27530,8.81,72608.0,-3.27,-4.09,-4.05,0,*59
1518098899.84,27531,8.81,72608.0,-3.27,-4.09,-4.05,0,*58
1518098901.06,27532,8.81,72614.5,-3.29,-4.09,-4.09,0,*59
1518098902.26,27533,8.75,72608.5,-3.27,-4.09,-4.09,0,*56
1518098903.45,27534,8.81,72614.8,-3.27,-4.05,-4.09,0,*5D
1518098904.67,27535,8.81,72612.5,-3.29,-4.09,-4.05,0,*52
1518098905.87,27536,8.75,72608.8,-3.27,-4.09,-4.09,0,*53
1518098907.06,27537,8.75,72612.3,-3.27,-4.09,-4.09,0,*52
1518098908.25,27538,8.81,72614.5,-3.27,-4.05,-4.09,0,*51
1518098909.45,27539,8.75,72614.8,-3.27,-4.09,-4.09,0,*5C
1518098910.67,27540,8.81,72614.5,-3.29,-4.09,-4.09,0,*5C
1518098911.86,27541,8.81,72612.0,-3.27,-4.09,-4.09,0,*53
1518098913.06,27542,8.75,72608.8,-3.27,-4.09,-4.09,0,*50
1518098914.25,27543,8.81,72608.8,-3.27,-4.09,-4.09,0,*51